Location: Hopewell Observatory
(38.8698°N, 77.6988°W)
Time: 12:25:10
(UTC-04:00)

Nimbus 7 Rocket - Pass Details

Date: 26 May 2018
Orbit: 922 x 965 km, 99.5° (Epoch: 20 June)

Event Time Altitude Azimuth Distance (km) Brightness Sun altitude
Rises 23:07:15 0° 15° (NNE) 3,581 8.1 -23.5°
Reaches altitude 10° 23:09:41 10° 17° (NNE) 2,638 7.3 -23.8°
Maximum altitude 23:15:35 78° 104° (ESE) 957 4.3 -24.4°
Enters shadow 23:16:59 54° 177° (S) 1,123 4.4 -24.5°
